Regional Weather Roundup
Issued by NWS Goodland, KS

Home | Current Version | Previous Version | Graphics & Text | Print | Product List | Glossary On
Versions: 1 2 3 4 5 6 7 8 9 10 11 12 13 14 15 16 17 18 19 20 21 22 23 24 25 26 27 28 29 30 31 32 33 34 35 36 37 38 39 40 41 42 43 44 45 46 47 48 49 50
056
ASUS43 KGLD 280908
RWRGLD

GOODLAND FORECAST AREA HOURLY WEATHER ROUNDUP
NATIONAL WEATHER SERVICE GOODLAND KS
300 AM MDT THU JUL 28 2016

...OFFICIAL OBSERVATIONS...

CITY           SKY/WX    TMP DP  RH WIND       PRES   REMARKS
GOODLAND KS    PTCLDY    62  59  90 CALM      30.15R
HILL CITY KS   CLOUDY    68  66  93 N5        30.05F
IMPERIAL NEB   CLOUDY    67  62  84 SW15      30.07F
MCCOOK NEB     PTCLDY    68  65  90 N6        30.11S
AKRON CO       CLOUDY    64  60  87 SE18      30.16F
BURLINGTON CO  CLOUDY    62  58  86 E12       30.17S
LIMON CO       CLEAR     57  54  89 NE3       30.21F
$$

...UNOFFICIAL OBSERVATIONS...

CITY           SKY/WX    TMP DP  RH WIND       PRES   REMARKS
COLBY KS       LGT RAIN  66  66 100 SW12      30.12F
LENORA KS        N/A     70  32  24 MISG        N/A
NORTON KS      CLOUDY    70  64  83 NW5       30.07R
KIT CARSON CO    N/A     61  56  83 CALM        N/A
YUMA CO          N/A     60  58  92 SE12        N/A
$$




USA.gov is the U.S. government's official web portal to all federal, state and local government web resources and services.